Preview of NWS' New Version of Forecast
This preview is not operational and should not be used for support decisions.

Regional Weather Roundup (RWR)

Issued by National Weather Service (NWS)

                            
000
ASUS43 KDMX 160806
RWRIA 

WEATHER ROUNDUP FOR IOWA
NATIONAL WEATHER SERVICE DES MOINES IA
300 AM CDT TUE OCT 16 2018

NOTE: "FAIR" INDICATES FEW OR NO CLOUDS BELOW 12,000 FEET WITH NO
SIGNIFICANT WEATHER AND/OR OBSTRUCTIONS TO VISIBILITY.

* - THESE STATIONS ARE NOT NWS STATIONS...THUS NOT UNDER NWS
QUALITY CONTROL.  THEY ALSO DO NOT REPORT WEATHER SUCH 
AS PRECIPITATION OR FOG.  

IAZ001>003-012>014-020>022-031>034-043>046-160900-
   NORTHWEST IOWA
  
CITY           SKY/WX    TMP DP  RH WIND       PRES   REMARKS
CARROLL *      CLEAR     36  30  80 SW16G22   30.15S WCI  26          
CHEROKEE *     CLEAR     34  29  83 S8        30.11F WCI  27          
DENISON *      CLEAR     36  28  75 SW8G14    30.18S WCI  29          
LE MARS *      CLEAR     32  27  80 S9        30.10F WCI  24          
ORANGE CITY *  CLEAR     34  28  80 SW8       30.08S WCI  27          
SIOUX CITY     CLEAR     35  26  69 SW6       30.14F WCI  30          
SPENCER        CLEAR     36  26  67 SW10      30.08S WCI  28          
STORM LAKE *   CLEAR     34  28  80 SW12      30.11S WCI  25          
$$
 
IAZ055>058-069>071-079>083-090>094-160900-
   SOUTHWEST IOWA
  
CITY           SKY/WX    TMP DP  RH WIND       PRES   REMARKS
AUDUBON *      CLEAR     36  28  75 S7        30.18F WCI  30          
CLARINDA *     CLEAR     28  27  93 S5        30.27F WCI  23          
COUNCIL BLFS * CLEAR     36  30  80 SW9       30.21S WCI  29          
CRESTON *      CLEAR     30  27  86 SW7       30.24F WCI  23          
HARLAN  *      CLEAR     30  28  93 S7        30.19F WCI  23          
LAMONI         CLEAR     30  27  88 SW9       30.25F WCI  22          
RED OAK *      CLEAR     30  28  93 S7        30.24S WCI  23          
SHENANDOAH *   CLEAR     30  28  93 CALM      30.25F                  
$$
 
IAZ047>049-059>061-072>074-084-160900-
   CENTRAL IOWA
  
CITY           SKY/WX    TMP DP  RH WIND       PRES   REMARKS
AMES           CLEAR     34  27  75 SW9       30.17F WCI  27          
ANKENY *       CLEAR     36  28  75 SW12G18   30.21F WCI  27          
BOONE *        CLEAR     32  28  86 MISG      30.16F                  
CHARITON *     CLEAR     32  28  86 SW8       30.23F WCI  25          
DES MOINES     CLEAR     34  28  79 SW8       30.21F WCI  27          
GRINNELL*      CLEAR     32  29  86 SW8       30.21F WCI  25          
KNOXVILLE *    CLEAR     32  30  93 SW8       30.21F WCI  25          
MARSHALLTOWN   CLEAR     34  28  79 SW9       30.17F WCI  27          
NEWTON *       CLEAR     34  28  80 SW10      30.20F WCI  26          
PELLA *        CLEAR     34  28  80 SW6       30.24S WCI  29          
PERRY *        FAIR      35  31  86 CALM      30.17F                  
$$
 
IAZ004>006-015-016-023>025-035-036-160900-
   NORTH CENTRAL IOWA
  
CITY           SKY/WX    TMP DP  RH WIND       PRES   REMARKS
ALGONA *       CLEAR     36  28  75 SW12G18   30.08F WCI  27          
CLARION *      CLEAR     36  28  75 SW13      30.11F WCI  27          
ESTHERVILLE    CLEAR     36  25  64 SW13G23   30.05F WCI  27          
FORT DODGE *   CLEAR     34  28  79 SW7       30.13F WCI  28          
MASON CITY     PTCLDY    35  29  78 SW16      30.09F WCI  25          
FOREST CITY *  CLOUDY    36  30  80 SW12G17   30.07F WCI  27          
WEBSTER CITY * CLEAR     36  28  75 SW10G17   30.11F WCI  28          
IOWA FALLS *   FAIR      35  30  80 SW9G16    30.15F WCI  28          
$$

IAZ007>011-017>019-026>030-037>042-050>054-066-160900-
   NORTHEAST IOWA
  
CITY           SKY/WX    TMP DP  RH WIND       PRES   REMARKS
CEDAR RAPIDS   FAIR      31  27  85 S7        30.19F WCI  24          
CHARLES CITY * FAIR      34  28  80 SW9       30.11F WCI  26          
CLINTON *      FAIR      33  30  88 SW9       30.22F WCI  25          
DECORAH *      FAIR      36  28  75 SW9G15    30.08F WCI  29          
DUBUQUE        FAIR      30  26  85 SW9       30.17F WCI  22          
MONTICELLO *   FAIR      32  28  86 SW5       30.18F WCI  27          
OELWEIN *        N/A     32  30  93 SW7       30.15S WCI  26          
WATERLOO       FAIR      35  28  75 SW12      30.15F WCI  27          
$$
 
IAZ064-065-067-068-078-160900-
   EAST CENTRAL IOWA
  
CITY           SKY/WX    TMP DP  RH WIND       PRES   REMARKS
DAVENPORT      FAIR      34  29  82 SW7       30.24F WCI  28          
IOWA CITY      FAIR      33  28  81 SW3       30.24F                  
MT. PLEASANT * CLEAR     32  32 100 SW6       30.26F WCI  26          
MUSCATINE *    FAIR      36  30  80 SW8       30.25F WCI  29          
QUAD CITIES    FAIR      35  30  82 W6        30.24F WCI  30          
$$
 
IAZ062-063-075>077-085>089-095>099-160900-
   SOUTHEAST IOWA
  
CITY           SKY/WX    TMP DP  RH WIND       PRES   REMARKS
BURLINGTON     CLEAR     34  29  82 W6        30.27F WCI  29          
FAIRFIELD *    CLEAR     32  28  86 SW6       30.25F WCI  26          
FORT MADISON * CLEAR     36  32  87 SW3       30.28F                  
KEOKUK *       CLEAR     32  30  93 SW7       30.28F WCI  26          
OSKALOOSA *    FAIR      31  29  90 SW7       30.24F WCI  24          
CENTERVILLE *  FAIR      32  28  86 CALM      30.27F                  
OTTUMWA        CLEAR     31  28  89 S7        30.24F WCI  24          
WASHINGTON *   CLEAR     32  32 100 SW8       30.25F WCI  25          
$$

ABBREVIATIONS USED IN REMARKS
   TC - TEMPERATURES IN CELSIUS
  WCI - WIND CHILL INDEX
   HX - HEAT INDEX
  VSB - VISIBILITY  
$$